Terminal Aerodrome Forecast
Issued by NWS Chicago, IL

Home | Current Version | Previous Version | Graphics & Text | Print | Product List | Glossary On
Versions: 1 2 3 4 5 6 7 8 9 10 11 12 13 14 15 16 17 18 19 20 21 22 23 24 25 26 27 28 29 30 31 32 33
000
FTUS43 KLOT 200255 AAB
TAFRFD
TAF AMD
KRFD 200255Z 2003/2024 34006KT 4SM -RA BR BKN008 OVC015
     FM200600 29007KT 4SM BR VCSH OVC006
     FM200900 29009KT 6SM BR VCSH OVC007
     FM201100 30015G23KT 6SM -SHRA BR OVC010
     FM201400 31018G27KT 6SM -SHRA OVC015
     FM201600 30020G30KT P6SM BKN020
     FM201800 28020G30KT P6SM BKN035=

USA.gov is the U.S. government's official web portal to all federal, state and local government web resources and services.